SR6NWB-11 Weather Reports


time (UTC)temp
C
wind
direction
speed
KPH
gust
KPH
rain 1hr
cm
rain 24hr
cm
rain mn
cm
humidity
%
barometer
mb
20260507001947 10 0 0.0 0.0 0.00 0.00 0.00 96 1011.2
20260507001117 10 0 0.0 0.0 0.00 0.00 0.00 96 1011.2
20260507000122 10 0 0.0 0.0 0.00 0.00 0.00 96 1011.4
20260506235257 10 0 0.0 0.0 0.00 0.00 0.00 96 1011.7
20260506234352 11 0 0.0 0.0 0.00 0.00 0.00 96 1011.7
20260506233507 11 0 0.0 0.0 0.00 0.00 0.00 96 1011.7
20260506232542 10 0 0.0 0.0 0.00 0.00 0.00 97 1011.9
20260506231727 10 0 0.0 0.0 0.00 0.00 0.00 97 1011.9
20260506230839 10 0 0.0 0.0 0.00 0.00 0.00 97 1011.9
20260506230017 10 0 0.0 0.0 0.00 0.00 0.00 97 1011.9
20260506225117 10 0 0.0 0.0 0.00 0.00 0.00 97 1011.7
20260506224302 10 0 0.0 0.0 0.00 0.00 0.00 97 1011.4
20260506223432 11 0 0.0 0.0 0.00 0.00 0.00 96 1011.5
20260506222450 11 0 0.0 0.0 0.00 0.00 0.00 95 1011.6
20260506221559 11 0 0.0 0.0 0.00 0.00 0.00 95 1011.7
20260506220702 11 0 0.0 0.0 0.00 0.00 0.00 95 1011.7
20260506215837 11 0 0.0 0.0 0.00 0.00 0.00 95 1011.9
20260506215007 11 0 0.0 0.0 0.00 0.00 0.00 95 1011.3
20260506214052 11 0 0.0 0.0 0.00 0.00 0.00 95 1011.7
20260506213112 11 0 0.0 0.0 0.00 0.00 0.00 95 1011.6
20260506212237 11 0 0.0 0.0 0.00 0.00 0.00 95 1011.4
20260506211307 11 0 0.0 0.0 0.00 0.00 0.00 95 1011.5
20260506210322 11 0 0.0 0.0 0.00 0.00 0.00 95 1011.1
20260506205332 11 0 0.0 0.0 0.00 0.00 0.00 95 1011.1
20260506204502 11 0 0.0 0.0 0.00 0.00 0.00 94 1011.3
20260506203551 11 0 0.0 0.0 0.00 0.00 0.00 93 1011.3
20260506202657 11 0 0.0 0.0 0.00 0.00 0.00 94 1010.9
20260506201852 11 0 0.0 0.0 0.00 0.00 0.00 94 1010.7
20260506201042 11 0 0.0 0.0 0.00 0.00 0.00 94 1010.9
20260506200107 11 0 0.0 0.0 0.00 0.00 0.00 94 1010.9
20260506195252 11 0 0.0 0.0 0.00 0.00 0.00 94 1010.8
20260506194319 11 0 0.0 0.0 0.00 0.00 0.00 94 1010.7
20260506193327 11 0 0.0 0.0 0.00 0.00 0.00 95 1010.9
20260506192347 11 0 0.0 0.0 0.00 0.00 0.00 95 1011.0
20260506191527 11 0 0.0 0.0 0.00 0.00 0.00 95 1011.0
20260506190652 11 0 0.0 0.0 0.00 0.00 0.00 96 1011.2
20260506185729 11 0 0.0 0.0 0.00 0.00 0.00 96 1011.7
20260506184842 11 0 0.0 0.0 0.00 0.00 0.00 96 1011.7
20260506183932 11 0 0.0 0.0 0.00 0.00 0.00 94 1011.4
20260506183027 12 0 0.0 0.0 0.00 0.00 0.00 90 1011.0
20260506182032 12 0 0.0 0.0 0.00 0.00 0.00 89 1010.7
20260506181212 12 0 0.0 0.0 0.00 0.00 0.00 87 1011.1
20260506180327 12 0 0.0 0.0 0.00 0.00 0.00 83 1011.0
20260506175517 13 0 0.0 0.0 0.00 0.00 0.00 81 1011.1
20260506174631 13 0 0.0 0.0 0.00 0.00 0.00 79 1011.2
20260506173632 13 0 0.0 0.0 0.00 0.00 0.00 76 1011.2
20260506172717 14 0 0.0 0.0 0.00 0.00 0.00 72 1011.0
20260506171912 15 0 0.0 0.0 0.00 0.00 0.00 66 1010.7
20260506171057 15 0 0.0 0.0 0.00 0.00 0.00 61 1010.9
20260506170152 15 0 0.0 0.0 0.00 0.00 0.00 61 1010.6
20260506165227 15 0 0.0 0.0 0.00 0.00 0.00 61 1010.4
20260506164407 15 0 0.0 0.0 0.00 0.00 0.00 62 1010.5
20260506163432 16 0 0.0 0.0 0.00 0.00 0.00 60 1010.7
20260506162517 16 0 0.0 0.0 0.00 0.00 0.00 57 1010.7
20260506161622 17 0 0.0 0.0 0.00 0.00 0.00 54 1010.8
20260506160817 18 0 0.0 0.0 0.00 0.00 0.00 52 1010.9
20260506155942 18 0 0.0 0.0 0.00 0.00 0.00 49 1011.0
20260506155057 18 0 0.0 0.0 0.00 0.00 0.00 47 1011.1
20260506154132 19 0 0.0 0.0 0.00 0.00 0.00 43 1011.1
20260506153327 20 0 0.0 0.0 0.00 0.00 0.00 42 1011.0
20260506152332 20 0 0.0 0.0 0.00 0.00 0.00 42 1011.0
20260506151452 21 0 0.0 0.0 0.00 0.00 0.00 41 1011.0
20260506150637 21 0 0.0 0.0 0.00 0.00 0.00 41 1011.1
20260506145712 21 0 0.0 0.0 0.00 0.00 0.00 41 1011.2
20260506144847 21 0 0.0 0.0 0.00 0.00 0.00 43 1011.2
20260506143922 21 0 0.0 0.0 0.00 0.00 0.00 44 1011.3
20260506142942 20 0 0.0 0.0 0.00 0.00 0.00 44 1011.3
20260506142132 20 0 0.0 0.0 0.00 0.00 0.00 46 1011.3
20260506141319 20 0 0.0 0.0 0.00 0.00 0.00 45 1011.2
20260506140402 20 0 0.0 0.0 0.00 0.00 0.00 48 1011.2
20260506135439 20 0 0.0 0.0 0.00 0.00 0.00 49 1011.5
20260506134617 20 0 0.0 0.0 0.00 0.00 0.00 50 1011.6
20260506133639 19 0 0.0 0.0 0.00 0.00 0.00 51 1011.5
20260506132719 18 0 0.0 0.0 0.00 0.00 0.00 54 1011.5
20260506131902 18 0 0.0 0.0 0.00 0.00 0.00 54 1011.5
20260506131022 18 0 0.0 0.0 0.00 0.00 0.00 54 1011.7
20260506130157 17 0 0.0 0.0 0.00 0.00 0.00 56 1011.5
20260506125319 17 0 0.0 0.0 0.00 0.00 0.00 57 1011.8
20260506124432 17 0 0.0 0.0 0.00 0.00 0.00 57 1011.6
20260506123522 17 0 0.0 0.0 0.00 0.00 0.00 59 1011.6
20260506122557 17 0 0.0 0.0 0.00 0.00 0.00 61 1011.6
20260506121602 16 0 0.0 0.0 0.00 0.00 0.00 65 1011.7
20260506120732 16 0 0.0 0.0 0.00 0.00 0.00 66 1011.7
20260506115917 16 0 0.0 0.0 0.00 0.00 0.00 67 1011.9
20260506114917 16 0 0.0 0.0 0.00 0.00 0.00 68 1011.8
20260506113927 16 0 0.0 0.0 0.00 0.00 0.00 68 1011.7
20260506113032 15 0 0.0 0.0 0.00 0.00 0.00 70 1011.7
20260506112229 15 0 0.0 0.0 0.00 0.00 0.00 74 1011.7
20260506111352 15 0 0.0 0.0 0.00 0.00 0.00 74 1011.7
20260506110547 14 0 0.0 0.0 0.00 0.00 0.00 76 1011.6
20260506105707 14 0 0.0 0.0 0.00 0.00 0.00 75 1011.5
20260506104707 14 0 0.0 0.0 0.00 0.00 0.00 77 1011.7
20260506103707 14 0 0.0 0.0 0.00 0.00 0.00 79 1011.6
20260506102707 13 0 0.0 0.0 0.00 0.00 0.00 79 1011.6
20260506101839 13 0 0.0 0.0 0.00 0.00 0.00 79 1011.5
20260506100904 13 0 0.0 0.0 0.00 0.00 0.00 81 1011.6
20260506095959 13 0 0.0 0.0 0.00 0.00 0.00 81 1011.4
20260506095152 13 0 0.0 0.0 0.00 0.00 0.00 82 1011.5
20260506094326 13 0 0.0 0.0 0.00 0.00 0.00 83 1011.5
20260506093332 13 0 0.0 0.0 0.00 0.00 0.00 84 1011.5
20260506092332 13 0 0.0 0.0 0.00 0.00 0.00 84 1011.4
20260506091532 12 0 0.0 0.0 0.00 0.00 0.00 85 1011.4
20260506090559 12 0 0.0 0.0 0.00 0.00 0.00 86 1011.2
20260506085727 12 0 0.0 0.0 0.00 0.00 0.00 86 1011.4
20260506084832 12 0 0.0 0.0 0.00 0.00 0.00 85 1011.1
20260506083902 12 0 0.0 0.0 0.00 0.00 0.00 86 1011.1
20260506082947 13 0 0.0 0.0 0.00 0.00 0.00 86 1011.0
20260506082137 13 0 0.0 0.0 0.00 0.00 0.00 86 1011.0
20260506081259 13 0 0.0 0.0 0.00 0.00 0.00 88 1010.9
20260506080332 12 0 0.0 0.0 0.00 0.00 0.00 88 1010.8
20260506072737 12 0 0.0 0.0 0.00 0.00 0.00 92 1010.7
20260506071837 11 0 0.0 0.0 0.00 0.00 0.00 92 1010.6
20260506070837 11 0 0.0 0.0 0.00 0.00 0.00 93 1010.3
20260506061602 12 0 0.0 0.0 0.00 0.00 0.00 93 1010.2
20260506060757 12 0 0.0 0.0 0.00 0.00 0.00 93 1010.1
20260506050442 11 0 0.0 0.0 0.00 0.00 0.00 96 1009.6
20260506044642 11 0 0.0 0.0 0.00 0.00 0.00 97 1009.7
20260506043737 11 0 0.0 0.0 0.00 0.00 0.00 97 1009.5
20260506042829 11 0 0.0 0.0 0.00 0.00 0.00 97 1009.6
20260506041852 11 0 0.0 0.0 0.00 0.00 0.00 96 1009.5
20260506040947 11 0 0.0 0.0 0.00 0.00 0.00 95 1009.6
20260506035232 11 0 0.0 0.0 0.00 0.00 0.00 92 1009.4
20260506034427 11 0 0.0 0.0 0.00 0.00 0.00 90 1009.3
20260506033447 11 0 0.0 0.0 0.00 0.00 0.00 88 1009.4
20260506032647 11 0 0.0 0.0 0.00 0.00 0.00 88 1009.4
20260506031702 11 0 0.0 0.0 0.00 0.00 0.00 89 1009.4
20260506030727 11 0 0.0 0.0 0.00 0.00 0.00 89 1009.4
20260506025730 11 0 0.0 0.0 0.00 0.00 0.00 89 1009.5
20260506024919 11 0 0.0 0.0 0.00 0.00 0.00 90 1009.5
20260506024032 11 0 0.0 0.0 0.00 0.00 0.00 91 1009.5
20260506023032 11 0 0.0 0.0 0.00 0.00 0.00 91 1009.6
20260506022152 11 0 0.0 0.0 0.00 0.00 0.00 92 1009.5
20260506021152 11 0 0.0 0.0 0.00 0.00 0.00 93 1009.6
20260506020242 11 0 0.0 0.0 0.00 0.00 0.00 93 1009.8
20260506015422 11 0 0.0 0.0 0.00 0.00 0.00 93 1010.1
20260506014457 11 0 0.0 0.0 0.00 0.00 0.00 92 1010.3
20260506013527 11 0 0.0 0.0 0.00 0.00 0.00 91 1010.1
20260506012537 11 0 0.0 0.0 0.00 0.00 0.00 89 1010.2
20260506011657 11 0 0.0 0.0 0.00 0.00 0.00 88 1010.2
20260506005859 11 0 0.0 0.0 0.00 0.00 0.00 89 1010.2
20260506005032 12 0 0.0 0.0 0.00 0.00 0.00 91 1010.3
20260506004227 12 0 0.0 0.0 0.00 0.00 0.00 92 1010.2
20260506003307 12 0 0.0 0.0 0.00 0.00 0.00 93 1010.1